ASL5L LYBE-LTFM

Flight info

Callsign ASL5L
Flight time N/A
Altitude 37000
Route DONIV DCT ETIDA T390 RILEX
Aircraft A320/M-SDE3FGHIRWY/LB1

Departure

Time 2026-04-29 11:01
Airport Belgrade Nikola Tesla Airport (LYBE)

Arrival

Time N/A
Airport İstanbul Airport (LTFM)
Time Latitude Longitude Altitude Speed Heading
2026-04-29 10:41 44.82162 20.29108 347 ft 0 kts 212°
2026-04-29 10:51 44.82171 20.29116 320 ft 2 kts 210°
2026-04-29 10:51 44.82185 20.29129 318 ft 2 kts 212°
2026-04-29 10:51 44.82198 20.29142 318 ft 2 kts 216°
2026-04-29 10:51 44.82211 20.29156 316 ft 2 kts 231°
2026-04-29 10:52 44.82217 20.29177 318 ft 2 kts 304°
2026-04-29 10:52 44.82213 20.29183 316 ft 0 kts 302°
2026-04-29 10:54 44.82221 20.29165 318 ft 6 kts 301°
2026-04-29 10:54 44.82255 20.29083 319 ft 14 kts 301°
2026-04-29 10:54 44.82316 20.28947 318 ft 18 kts 302°
2026-04-29 10:55 44.82374 20.28818 318 ft 19 kts 302°
2026-04-29 10:55 44.82433 20.28805 318 ft 11 kts 22°
2026-04-29 10:55 44.82512 20.28852 319 ft 14 kts 31°
2026-04-29 10:55 44.82582 20.28942 319 ft 16 kts 51°
2026-04-29 10:56 44.82600 20.28983 318 ft 0 kts 64°
2026-04-29 10:58 44.82604 20.28996 318 ft 4 kts 67°
2026-04-29 10:58 44.82615 20.29063 318 ft 10 kts 83°
2026-04-29 10:58 44.82614 20.29170 318 ft 15 kts 101°
2026-04-29 10:58 44.82544 20.29340 316 ft 35 kts 121°
2026-04-29 10:59 44.82240 20.30036 318 ft 126 kts 122°
2026-04-29 10:59 44.81697 20.31275 558 ft 169 kts 122°
2026-04-29 10:59 44.81626 20.31430 648 ft 169 kts 122°
2026-04-29 10:59 44.81549 20.31591 772 ft 165 kts 122°
2026-04-29 11:00 44.81525 20.31640 820 ft 164 kts 120°
2026-04-29 11:01 44.80948 20.32792 2048 ft 139 kts 122°
2026-04-29 11:01 44.80467 20.34032 2316 ft 154 kts 100°
2026-04-29 11:01 44.80422 20.35606 2566 ft 177 kts 78°
2026-04-29 11:01 44.80926 20.37262 2966 ft 192 kts 51°
2026-04-29 11:02 44.81262 20.37756 3275 ft 180 kts 27°
2026-04-29 11:02 44.82271 20.38271 4179 ft 168 kts 15°
2026-04-29 11:02 44.82747 20.38500 4408 ft 171 kts 27°
2026-04-29 11:02 44.83502 20.39184 4680 ft 186 kts 33°
2026-04-29 11:03 44.84744 20.39799 5007 ft 199 kts 356°
2026-04-29 11:03 44.85982 20.39060 5008 ft 199 kts 312°
2026-04-29 11:03 44.86533 20.37455 4931 ft 200 kts 283°
2026-04-29 11:03 44.86614 20.35499 4751 ft 204 kts 265°
2026-04-29 11:04 44.86235 20.33871 4708 ft 226 kts 236°
2026-04-29 11:04 44.84978 20.32295 5101 ft 251 kts 218°
2026-04-29 11:04 44.83612 20.30867 5755 ft 255 kts 220°
2026-04-29 11:04 44.82312 20.29202 5960 ft 252 kts 228°
2026-04-29 11:05 44.81137 20.27385 6004 ft 250 kts 231°
2026-04-29 11:05 44.79909 20.25641 6228 ft 258 kts 216°
2026-04-29 11:05 44.78243 20.24711 7237 ft 261 kts 190°
2026-04-29 11:05 44.76448 20.24866 7907 ft 282 kts 162°
2026-04-29 11:06 44.75716 20.25338 8173 ft 289 kts 149°
2026-04-29 11:06 44.75017 20.26123 8474 ft 296 kts 130°
2026-04-29 11:06 44.73759 20.28846 7347 ft 364 kts 116°
2026-04-29 11:06 44.72765 20.32473 6454 ft 409 kts 107°
2026-04-29 11:07 44.71984 20.36263 7283 ft 401 kts 104°
2026-04-29 11:07 44.71400 20.40058 8082 ft 391 kts 93°
2026-04-29 11:07 44.71701 20.43725 9230 ft 369 kts 73°
2026-04-29 11:07 44.72377 20.47078 10260 ft 352 kts 72°
2026-04-29 11:08 44.73023 20.50291 11788 ft 332 kts 71°
2026-04-29 11:08 44.73641 20.53391 13205 ft 321 kts 71°
2026-04-29 11:08 44.74223 20.56418 14114 ft 323 kts 76°
2026-04-29 11:08 44.74410 20.59593 14819 ft 329 kts 86°
2026-04-29 11:09 44.74456 20.62833 15520 ft 334 kts 86°
2026-04-29 11:09 44.74496 20.66092 16197 ft 338 kts 86°